Probability
0 0 0 0 0 0 0 0 0 0 0 1 2 3 4 5 6 8 10 13 18 23 26 28 31 32 34 35 37 37 40 46 49 44 36 31 32 35 37 37 36 32 29 29
0 0 0 0 0 0 0 0 0 0 0 1 1 2 4 7 7 7 8 11 17 23 26 27 28 30 32 36 37 38 42 45 45 42 38 35 34 35 34 34 32 28 26 28
0 0 0 0 0 0 0 0 0 0 0 0 0 1 4 7 8 7 7 9 15 22 25 24 23 23 26 31 34 37 42 42 38 36 37 38 37 34 31 30 30 27 25 25
0 0 0 0 0 0 0 0 0 0 0 0 0 0 3 7 8 7 7 9 13 19 22 20 18 17 19 23 28 33 37 36 32 31 34 37 37 34 30 29 30 29 25 24
0 0 0 0 0 0 0 0 0 0 0 0 0 1 3 6 7 6 7 9 14 18 18 16 15 15 16 18 23 26 28 29 29 31 33 36 36 34 31 30 30 28 25 23
0 0 0 0 0 0 0 1 0 0 0 0 0 1 3 5 6 6 8 10 14 17 17 16 15 17 18 18 19 20 21 23 26 29 31 34 34 33 33 31 29 27 24 23
0 0 0 0 0 0 0 0 0 0 0 0 0 1 2 4 4 5 8 10 13 16 17 17 17 18 20 19 18 18 20 22 24 26 28 30 31 30 30 29 27 25 23 21
0 0 0 0 0 0 0 0 0 0 0 0 0 0 1 2 2 3 5 7 10 14 16 16 16 18 20 19 17 17 19 22 23 24 25 26 26 25 24 24 23 22 20 19
0 0 0 0 0 0 0 0 0 0 0 0 0 0 0 0 1 1 2 4 8 12 13 12 13 16 18 17 15 16 18 20 21 22 22 22 21 19 19 19 20 20 19 18
0 0 0 0 0 0 0 0 0 0 0 0 0 0 0 1 1 2 2 4 8 10 10 9 10 13 14 14 14 15 18 18 18 18 18 18 17 16 15 17 18 19 18 17
0 0 0 0 0 0 0 0 0 0 0 0 0 0 1 2 3 4 4 6 8 9 7 6 8 10 10 10 11 14 15 15 14 15 15 15 14 13 13 14 15 16 15 14
0 0 0 0 0 0 0 0 0 0 0 0 0 0 1 3 5 5 6 7 7 6 5 5 6 8 8 8 9 10 12 12 11 11 11 11 11 11 11 12 13 12 11 10
0 0 0 0 0 0 0 0 0 0 0 0 0 1 2 3 5 6 6 6 5 5 5 6 7 8 8 8 8 9 10 10 10 10 10 10 10 10 11 12 12 11 9 7
0 0 0 0 0 0 0 0 0 0 0 0 0 1 2 2 4 7 7 5 3 4 6 8 9 9 8 9 10 10 10 10 10 10 10 11 12 12 12 12 11 10 8 7
0 0 0 0 0 0 0 0 0 0 0 0 0 1 1 1 4 8 8 5 2 4 6 8 9 8 7 8 9 9 9 10 10 10 11 12 13 12 11 10 9 9 8 7
0 0 0 0 0 0 0 0 0 0 0 0 0 0 1 2 5 9 10 6 3 4 5 6 6 6 6 6 7 7 7 9 10 10 9 10 10 9 8 7 7 7 6 5
0 0 0 0 0 0 0 0 0 0 0 0 0 1 2 3 5 8 9 7 4 5 5 4 4 4 6 6 6 6 6 6 7 7 6 5 5 5 5 4 4 4 4 4
1 1 0 0 0 0 0 0 0 0 0 0 0 1 2 3 5 7 8 6 4 4 6 6 5 5 7 8 8 6 4 4 4 4 3 3 2 2 3 3 3 3 3 3
3 3 2 0 0 0 0 0 0 0 0 0 0 1 1 2 4 6 7 6 3 4 8 10 8 8 10 11 10 7 4 3 3 3 3 2 1 1 3 3 3 3 3 3
3 4 3 0 0 0 0 0 0 0 0 1 1 2 1 1 2 3 4 4 4 5 8 11 12 12 13 13 11 8 5 3 3 3 3 3 2 2 3 3 3 3 3 2
1 2 2 0 0 0 0 0 0 1 1 1 2 2 2 2 2 1 1 2 4 5 7 11 14 15 15 13 11 9 6 4 3 3 3 3 3 3 3 3 3 2 1 1
1 1 1 0 0 0 0 0 1 2 2 1 1 1 2 2 1 1 1 2 4 4 7 11 15 16 15 12 10 9 7 5 3 3 4 5 4 3 2 2 1 1 0 0
1 1 1 0 0 0 0 0 0 1 1 0 0 0 1 1 0 1 1 3 4 4 6 11 13 13 12 11 10 8 6 4 3 3 4 5 4 2 1 0 0 0 0 0
0 0 0 0 0 0 0 0 0 0 0 0 0 0 0 0 0 0 1 2 3 3 6 9 9 8 8 8 7 6 4 3 2 2 2 3 3 1 0 0 0 0 0 0
0 0 0 0 0 0 0 0 0 0 0 0 0 0 0 0 0 0 1 1 1 3 5 7 6 5 5 5 5 4 4 3 2 1 0 1 1 1 0 0 0 0 0 0
0 0 0 0 0 0 0 0 0 0 0 0 0 0 0 0 0 0 0 0 1 3 6 6 6 4 2 3 4 4 5 3 1 0 0 0 1 0 0 0 0 0 0 0
Wind_Speed
8 7 6 5 7 8 9 7 8 5 2 3 2 2 2 3 3 3 3 2 4 4 5 5 4 4 4 4 3 3 3 3 2 2 2 2 2 2 1 1 2 2 2 2
7 6 5 5 6 9 10 8 7 5 2 2 2 2 2 3 4 3 2 3 4 4 5 5 5 4 5 4 3 3 2 2 2 2 2 2 1 2 2 1 2 2 2 2
4 3 4 6 7 7 8 7 8 7 5 3 3 3 2 4 3 3 3 3 3 4 5 4 4 3 3 4 3 2 2 2 2 2 2 1 1 1 1 2 2 2 2 2
4 3 3 6 7 7 7 5 6 7 7 5 6 4 2 5 4 3 2 2 2 4 4 4 4 4 3 4 4 3 3 2 2 2 2 3 2 2 2 2 1 2 2 3
4 2 4 5 6 7 7 7 7 8 7 7 6 4 1 3 3 3 3 4 3 3 3 3 4 4 3 3 3 3 2 2 1 1 1 1 2 2 1 1 2 2 2 3
4 2 2 4 6 7 7 7 8 6 5 6 5 3 3 3 3 3 4 4 4 4 3 3 3 4 3 3 3 3 3 2 1 1 1 2 2 2 1 2 2 2 2 2
4 1 1 2 5 5 7 5 4 3 2 3 1 2 3 2 2 3 4 4 4 4 4 4 3 3 4 3 3 3 3 2 2 1 1 2 2 1 1 2 1 1 1 1
4 2 4 4 5 5 6 4 3 4 3 2 2 4 4 4 5 5 5 4 5 4 4 4 3 3 3 2 2 3 3 2 1 1 1 1 1 0 1 1 1 1 1 0
6 4 3 3 4 5 7 6 4 4 6 2 2 4 5 5 6 6 6 5 4 4 4 4 4 3 3 3 2 3 2 2 2 1 1 1 0 0 1 1 1 1 1 1
7 7 5 2 3 3 5 7 4 3 3 3 1 2 3 4 5 6 5 4 5 4 3 3 4 4 3 3 3 3 3 3 2 1 1 1 1 1 1 1 1 1 1 1
7 5 6 5 3 5 6 6 5 4 3 3 3 3 3 3 3 4 3 5 5 4 3 3 3 3 3 2 2 2 3 3 2 2 1 2 1 1 1 1 1 1 2 2
5 4 6 4 4 6 5 5 5 3 3 3 2 1 1 3 4 4 5 6 5 4 4 4 4 4 3 2 2 3 3 2 2 2 2 1 1 1 2 2 2 2 2 1
6 4 5 2 1 4 6 6 6 4 3 3 3 1 2 4 4 6 6 5 5 4 4 5 5 4 3 3 2 2 2 2 2 2 2 2 2 2 2 2 2 2 1 1
2 3 4 5 6 6 7 8 7 5 4 3 3 2 2 3 4 5 5 4 4 4 4 4 4 4 3 3 3 3 3 3 2 2 2 1 1 1 1 2 2 2 1 1
3 4 5 6 6 5 5 6 6 6 5 4 3 3 3 4 4 4 3 3 4 4 3 3 3 3 2 2 3 3 3 3 2 1 1 1 0 1 1 1 2 2 1 2
3 4 7 6 4 3 4 6 5 4 5 4 4 4 4 4 4 3 3 4 4 3 3 3 3 3 2 2 2 2 2 1 1 1 0 0 1 1 2 1 1 1 2 2
5 5 7 6 5 4 3 5 4 4 5 5 5 4 2 3 3 3 3 3 2 3 3 3 3 3 2 2 2 1 0 0 0 1 1 1 1 2 2 2 2 2 2 2
4 6 5 6 6 4 2 4 4 4 5 5 5 4 3 3 3 2 2 2 2 2 2 2 2 2 1 1 1 1 1 0 1 1 1 1 2 2 2 3 3 2 2 2
2 3 5 5 5 1 2 3 3 3 3 5 4 4 4 3 1 3 5 4 3 3 2 1 1 1 0 1 1 1 1 1 1 1 1 2 2 2 2 2 3 2 2 2
3 3 4 5 6 4 3 4 3 2 1 5 6 5 6 5 4 3 4 4 4 4 2 1 0 0 0 1 1 2 1 2 2 2 2 2 2 2 2 2 2 2 2 2
3 4 5 5 5 1 4 5 3 3 3 5 6 5 4 4 3 2 2 3 3 2 2 2 1 0 0 0 1 1 2 2 1 1 1 1 1 1 1 1 1 1 2 2
4 5 5 5 4 2 7 6 5 4 3 4 4 4 4 4 3 2 2 2 2 2 2 1 1 1 0 0 0 1 0 1 1 1 1 1 1 2 2 1 2 2 2 2
2 3 4 4 3 3 4 4 3 2 3 4 4 3 3 3 3 3 2 2 2 2 2 2 1 1 1 0 1 1 1 1 1 1 1 1 0 1 1 1 2 2 2 2
2 3 2 3 2 4 4 5 4 4 3 4 4 4 3 3 3 3 2 2 2 2 2 1 1 2 1 1 2 2 1 1 1 1 1 0 0 0 1 1 1 2 2 2
7 5 4 4 4 5 4 5 5 5 4 4 4 4 3 3 3 2 2 2 2 2 2 1 1 2 2 2 2 1 1 1 1 1 1 0 1 1 1 1 1 1 1 1
5 5 4 4 4 4 5 5 5 4 4 3 3 3 3 3 3 2 2 1 1 1 1 1 1 2 2 2 1 1 1 1 1 1 1 1 1 1 1 2 1 2 1 1
Wind_Direction
238 236 254 264 268 278 284 286 290 282 274 272 232 191 179 152 132 100 89 107 123 122 127 127 129 129 129 124 121 133 141 136 160 177 192 209 213 210 228 204 163 182 199 213
242 248 259 268 265 278 289 289 283 284 255 248 238 184 134 109 117 111 98 104 120 131 121 125 130 136 138 135 141 139 130 139 180 187 206 221 211 219 211 209 186 204 211 224
281 295 287 277 267 269 281 293 291 288 271 248 247 238 206 115 106 100 85 82 111 120 128 129 128 127 146 151 158 160 155 148 164 201 202 209 192 260 242 216 202 209 217 227
277 320 295 280 284 288 283 278 279 280 272 248 237 245 190 128 125 97 80 80 100 114 118 142 143 154 184 175 160 151 141 153 171 212 211 218 223 227 227 220 205 208 220 226
295 321 301 302 311 306 302 293 276 264 265 263 230 238 120 102 87 66 49 40 69 98 105 137 149 156 158 152 134 134 150 158 175 226 219 243 248 243 236 208 195 217 230 232
301 279 298 324 323 305 307 308 298 272 255 259 244 222 94 47 28 51 47 37 38 64 75 101 123 128 126 130 132 140 149 147 183 213 221 242 256 253 232 236 220 224 225 223
282 216 114 343 327 327 321 327 314 293 240 262 299 58 76 72 62 64 60 35 51 52 64 81 93 112 110 113 126 137 140 149 171 189 215 228 237 244 243 251 242 241 245 229
316 6 26 359 334 318 306 310 296 305 295 309 18 77 83 56 73 73 83 59 60 55 70 78 82 88 102 105 107 121 131 135 148 166 185 198 212 253 273 265 260 256 266 261
338 344 357 325 328 323 306 312 307 300 293 306 66 91 98 63 59 53 65 70 62 64 66 66 75 87 89 80 96 113 121 126 132 132 127 113 134 266 305 305 285 269 280 289
323 312 316 319 301 315 302 314 328 339 339 347 35 72 28 33 39 43 41 68 74 64 55 65 75 76 75 78 89 107 113 106 107 98 75 69 54 357 323 274 272 303 305 290
325 311 313 324 340 346 339 341 352 346 324 312 321 49 37 34 33 38 53 67 63 48 48 77 86 93 93 83 86 100 100 104 103 96 73 58 41 359 317 320 321 298 277 273
338 312 302 306 349 356 359 352 349 330 326 331 322 50 41 57 48 53 61 65 56 52 44 64 77 85 86 76 59 66 82 95 100 95 84 67 26 4 346 333 319 299 293 288
344 321 306 291 266 1 1 8 1 346 335 331 319 73 54 39 50 57 50 57 61 55 54 59 63 61 62 56 48 57 66 68 71 74 81 66 26 8 343 337 327 324 319 309
317 320 322 324 334 347 355 358 358 348 338 347 8 49 35 45 55 59 57 55 66 57 50 46 57 58 48 42 48 53 56 56 60 65 70 67 26 339 326 344 350 337 320 318
329 315 314 311 324 338 357 353 359 3 358 347 358 12 38 51 58 58 55 60 65 54 55 49 48 55 50 43 49 57 52 47 36 28 52 76 295 307 345 6 2 342 334 346
338 303 302 294 295 317 345 349 352 359 1 1 9 15 30 59 72 61 43 41 40 38 31 45 45 56 54 40 37 61 63 52 26 333 334 10 6 26 25 23 7 351 1 1
310 303 299 297 307 305 336 1 14 13 9 360 359 11 29 51 48 41 33 31 23 19 20 31 35 23 30 36 23 23 85 126 9 22 18 26 35 36 21 11 20 16 5 354
295 311 296 289 300 310 42 24 30 29 30 30 26 25 29 36 57 57 38 39 25 11 17 20 38 44 4 11 6 338 335 10 49 47 27 34 29 28 26 19 14 9 360 345
218 284 295 299 305 321 92 27 8 24 29 32 20 17 18 11 37 63 46 33 24 16 15 21 58 84 22 11 359 329 335 4 33 38 29 35 21 16 20 19 6 357 341 330
199 227 264 289 306 317 34 17 13 0 31 28 22 18 12 356 332 19 33 17 18 13 7 10 56 116 346 359 346 337 12 21 19 20 22 28 13 357 6 6 349 347 331 330
257 251 257 274 282 354 33 5 335 325 23 13 18 21 4 3 357 15 18 7 6 349 340 345 342 91 36 21 346 344 28 22 4 348 2 38 14 346 9 1 337 327 326 334
298 299 296 287 286 30 17 11 21 29 10 360 8 11 11 10 14 20 12 358 346 336 338 348 348 335 351 4 319 323 328 318 334 326 336 27 20 342 5 1 332 333 330 324
304 333 325 343 3 55 39 43 39 19 353 350 349 355 2 355 341 338 344 350 343 341 348 353 330 329 348 302 227 256 252 254 276 289 300 341 23 353 9 353 347 346 348 348
342 21 327 314 346 1 2 13 11 15 3 349 349 349 357 347 325 330 345 349 352 356 350 339 338 328 319 287 246 240 238 248 257 264 254 239 234 65 49 8 7 12 6 6
326 325 313 305 313 324 5 15 5 359 353 351 348 346 342 331 326 346 353 349 347 341 339 329 322 301 301 294 272 251 220 219 238 234 208 240 223 162 100 59 20 33 19 13
296 296 295 311 352 332 328 338 341 338 330 337 341 337 340 336 331 349 354 335 322 325 339 325 300 290 287 284 272 252 227 201 190 192 204 230 220 190 168 143 106 50 118 115